Regional Weather Roundup
Issued by NWS

Home | Current Version | Previous Version | Graphics & Text | Print | Product List | Glossary On
Versions: 1 2 3 4 5 6 7 8 9 10 11 12 13 14 15 16 17 18 19 20 21 22 23 24 25 26 27 28 29 30 31 32 33 34 35 36 37 38 39 40 41 42 43 44 45 46 47 48 49 50
000
ASUS45 KSLC 231710
RWRUT

UTAH REGIONAL WEATHER ROUNDUP
NATIONAL WEATHER SERVICE SALT LAKE CITY UT
1100 AM MDT FRI JUN 23 2017

UTZ001>011-023>025-231800-

NORTHERN UTAH

CITY           SKY/WX    TMP DP  RH WIND       PRES   REMARKS
BRIGHAM CITY   SUNNY     72  34  25 SW3       30.19S
HILL AFB       SUNNY     71  35  26 S6        30.20S
LOGAN          SUNNY     69  38  32 CALM      30.20F
OGDEN          SUNNY     73  38  27 SW7       30.18S
SALT LAKE CITY SUNNY     78  34  20 NW7       30.17S
TOOELE VALLEY  SUNNY     72  41  33 NW6       30.19S
WENDOVER         N/A     76  19  11 SE5       30.18F
HEBER CITY     SUNNY     70  34  26 CALM      30.21F
WEST JORDAN    SUNNY     73  47  39 N9        30.20S

$$

UTZ011>015-024>027-231800-

CENTRAL/NORTHEAST UTAH

CITY           SKY/WX    TMP DP  RH WIND       PRES   REMARKS
PROVO AIRPORT  SUNNY     71  43  36 W6        30.19S
MOAB/CANYONLAN SUNNY     85  29  13 VRB5      30.08S
DELTA          SUNNY     77  21  12 N7        30.17S
PRICE          SUNNY     80  21  11 VRB3      30.18S
RICHFIELD      SUNNY     75  36  23 NE5       30.20F
ROOSEVELT      SUNNY     72  36  26 W5        30.22S
VERNAL         SUNNY     73  36  25 VRB5      30.19F

$$

UTZ013>016-019>022-027-231800-

SOUTHERN UTAH

CITY           SKY/WX    TMP DP  RH WIND       PRES   REMARKS
BRYCE CANYON   SUNNY     78  31  17 W5        30.32S
CEDAR CITY     SUNNY     80  28  15 VRB5      30.18F
MILFORD        SUNNY     80  29  15 N12       30.17F
ST GEORGE      SUNNY     92  31  11 NW5       29.95F
HANKSVILLE     SUNNY     86  25  10 SE6       30.11S
KANAB          SUNNY     91  34  13 NW7       30.12S
BLANDING       SUNNY     87  20   8 W12       30.21F

$$

REGIONAL REPORTS     COLORADO/ARIZONA

CITY           SKY/WX    TMP DP  RH WIND       PRES   REMARKS
CRAIG, CO      SUNNY     68  35  29 VRB3      30.25F
GRAND JUNCTION SUNNY     83  35  18 W8        30.10F
RIFLE, CO      SUNNY     76  31  19 CALM      30.15F
MONTROSE, CO   SUNNY     76  32  20 N5        30.18F
CORTEZ, CO     SUNNY     85  28  12 N7        30.14F
COLORADO CITY    N/A     91  32  12 CALM      30.11F
PAGE, AZ       SUNNY     92  29  10 E5        30.04S
GRAND CANYON   SUNNY     86  26  11 VRB3      30.23F
KINGMAN, AZ    SUNNY     97  46  17 SW18      29.97S HX  93
FLAGSTAFF, AZ  SUNNY     85  23  10 W9        30.25S

$$

REGIONAL REPORTS    NEVADA/IDAHO/WYOMING

CITY           SKY/WX    TMP DP  RH WIND       PRES   REMARKS
LAS VEGAS, NV  SUNNY    101  22   6 NE8       29.87F HX  94
ELY, NY        SUNNY     72  25  17 N7        30.27F
ELKO, NV       SUNNY     72  23  16 VRB3      30.24F
POCATELLO, ID  SUNNY     66  38  35 NE14G20   30.25F
BURLEY, ID     SUNNY     68  35  29 NE9       30.23F
FORT BRIDGER,    N/A     62  32  32 CALM      30.34S
EVANSTON, WY   SUNNY     62  35  36 MISG      30.32R
ROCK SPRINGS,  SUNNY     61  30  31 NE7       30.30F
KEMMERER, WY     N/A     61  30  31 SW5       30.33S

$$



USA.gov is the U.S. government's official web portal to all federal, state and local government web resources and services.